Location: Bothwell
(42.3833°S, 147.0000°E)
Time: 00:59:21
(UTC+10:00)

CAS-4A - Visible Passes

Search period start: 21 July 2024 00:00
Search period end: 31 July 2024 00:00
Orbit: 469 x 485 km, 43.0° (Epoch: 20 July)

Date Brightness Start Highest point End Pass type
(mag) Time Alt. Az. Time Alt. Az. Time Alt. Az.
25 Jul ? 18:50:00 10° N 18:51:10 13° NNE 18:51:10 13° NNE visible
26 Jul ? 18:20:17 10° N 18:21:58 13° NE 18:22:55 12° NE visible
26 Jul ? 19:56:33 10° NW 19:57:02 13° NW 19:57:02 13° NW visible
27 Jul ? 17:50:33 10° NNE 17:52:00 12° NE 17:53:28 10° ENE visible
27 Jul ? 19:26:35 10° NW 19:28:41 29° NNW 19:28:41 29° NNW visible
28 Jul ? 18:56:33 10° NW 19:00:09 45° NNE 19:00:14 45° NNE visible
29 Jul ? 18:26:30 10° NW 18:30:04 43° NNE 18:31:42 26° ENE visible
29 Jul ? 20:04:58 10° W 20:05:48 16° W 20:05:48 16° W visible
30 Jul ? 17:56:24 10° NW 17:59:56 40° NNE 18:03:05 13° E visible
30 Jul ? 19:34:49 10° W 19:37:10 36° W 19:37:10 36° W visible
